Location: Castelbiague
(43.0361°N, 0.9246°E)
Time: 09:01:06
(UTC+00:00)

SPOT 5 - Pass Details

Date: 17 June 2021
Orbit: 622 x 815 km, 98.2° (Epoch: 03 August)

Event Time Altitude Azimuth Distance (km) Brightness Sun altitude
Exits shadow 21:41:32 25° 172° (S) 1,548 4.1 -16.6°
Maximum altitude 21:44:39 79° 257° (WSW) 782 3.0 -16.9°
Drops below altitude 10° 21:49:38 10° 344° (NNW) 2,249 6.6 -17.3°
Sets 21:51:52 0° 346° (NNW) 3,146 7.6 -17.6°
